Wetbulb
73.16 75.26 77.00 76.48 75.89 77.00 77.49 77.50 77.99 78.15 77.95 77.31 77.16 77.25 77.23 77.12 77.20 77.17 77.12 77.12 76.88 76.88 77.32 77.52 77.47 77.33 77.11 76.50 76.47 76.03 76.56 76.18 76.11 76.22 76.49 76.51 76.86 76.85 76.28 76.20 76.18 75.35 76.65
73.85 74.65 77.17 76.72 76.40 76.46 77.42 77.16 77.70 77.97 77.75 77.14 77.12 77.04 77.23 77.23 77.59 77.25 77.42 77.70 77.66 77.31 77.06 77.15 77.38 77.38 77.14 77.01 76.19 76.24 76.60 76.49 76.58 76.45 76.60 75.59 76.41 76.51 76.43 75.90 75.49 73.81 76.22
74.50 73.59 76.77 77.66 76.63 76.51 76.68 77.22 77.50 77.38 77.23 76.91 76.72 76.75 76.77 77.19 77.29 76.83 77.13 77.24 77.77 77.74 77.41 77.43 77.36 77.44 77.30 76.69 76.19 76.17 75.89 76.22 75.95 75.78 74.16 67.38 74.61 76.27 75.80 76.12 76.01 74.01 75.89
74.63 74.33 76.28 77.30 77.76 77.26 76.88 76.99 76.77 77.05 77.21 77.07 76.71 76.69 76.68 77.10 76.74 76.64 76.80 77.34 77.61 77.65 77.54 77.25 77.20 76.92 76.62 76.72 76.75 76.06 75.78 75.78 75.58 75.49 75.27 74.03 74.13 74.68 75.12 74.61 76.01 76.18 75.75
74.84 75.43 76.43 76.54 76.28 76.67 76.46 76.87 77.05 76.85 76.96 76.99 76.54 76.47 76.63 76.81 76.81 76.44 76.56 77.19 77.44 77.08 77.42 77.26 76.62 76.76 76.53 76.26 76.26 75.75 75.73 75.95 76.48 77.06 75.03 73.17 73.76 73.83 73.84 74.67 74.61 75.00 75.08
75.62 74.02 74.10 75.12 75.58 75.10 76.10 75.74 75.59 75.94 76.18 75.13 74.89 75.15 76.40 76.21 75.56 76.75 77.04 77.65 77.79 77.55 77.22 76.59 76.67 76.48 76.31 75.79 74.92 74.92 75.03 75.78 76.79 76.56 69.81 67.56 68.85 70.26 71.70 73.86 74.09 74.01 74.29
73.23 74.57 74.64 74.73 75.27 75.38 75.18 75.11 75.47 74.06 74.19 73.49 74.03 74.75 75.50 76.29 74.75 76.66 77.33 77.53 77.09 76.87 76.73 76.29 76.09 75.50 75.05 74.58 74.82 75.43 75.52 76.11 77.20 76.45 68.19 67.22 70.14 71.70 73.34 73.49 74.17 72.91 73.24
72.96 73.54 74.06 74.76 74.80 75.13 74.98 74.98 74.26 74.81 73.37 73.78 74.51 74.20 75.05 75.98 75.59 76.90 77.00 77.04 76.79 76.54 76.23 75.59 75.14 74.63 74.58 74.88 75.52 75.70 75.88 76.34 76.55 76.42 72.83 71.71 70.72 73.66 70.53 71.50 72.81 72.80 72.25
73.37 73.06 74.28 73.57 74.81 75.20 75.01 73.91 73.41 73.69 74.39 74.41 74.94 74.28 75.66 76.22 76.94 77.17 76.95 77.09 76.42 76.14 75.73 75.47 75.06 74.80 74.82 75.05 75.67 76.25 76.73 76.92 76.38 76.38 75.90 76.28 73.79 71.81 69.83 71.75 73.25 72.24 72.69
73.16 73.46 74.13 74.64 75.37 75.95 74.87 74.44 73.31 72.32 73.01 73.90 73.03 74.55 75.80 76.44 76.98 77.37 77.91 76.82 76.50 75.91 75.60 75.64 75.55 75.66 76.14 76.22 76.34 76.79 77.26 77.43 74.56 76.31 75.71 75.92 73.02 72.07 71.27 71.85 72.75 72.15 73.05
72.74 73.06 73.30 75.31 74.47 74.57 74.74 74.33 73.44 73.02 73.37 73.19 73.44 75.21 76.10 76.22 76.82 77.07 77.59 76.82 76.39 75.91 75.74 75.74 76.03 76.59 77.21 77.70 78.17 77.62 77.88 74.98 76.94 75.14 75.01 73.88 73.77 73.68 72.69 73.40 71.34 72.37 73.79
70.98 72.54 74.27 74.35 73.01 73.29 73.56 72.16 71.06 72.42 73.06 73.75 73.73 74.09 77.75 76.94 76.53 76.48 77.31 76.62 76.14 76.19 76.39 76.59 76.81 77.12 77.12 75.47 76.96 78.01 75.48 75.01 75.90 75.75 74.88 75.69 75.44 75.52 75.52 74.91 75.56 74.94 74.21
70.92 73.13 74.37 73.62 73.88 72.00 71.55 70.87 70.81 70.24 73.17 74.50 75.25 75.87 77.16 75.59 75.92 74.47 75.22 74.66 76.13 76.04 75.78 75.97 76.12 75.88 76.35 76.85 76.12 75.55 75.15 75.32 76.31 75.06 75.75 75.13 74.12 75.20 75.50 75.59 74.35 73.86 74.20
70.41 71.85 72.49 74.14 72.99 71.30 72.26 70.89 69.09 69.63 72.81 73.57 74.60 75.41 76.34 74.40 76.03 74.93 74.51 75.25 75.27 74.01 76.09 77.27 77.17 77.29 77.33 77.21 75.84 75.95 75.19 74.87 75.35 74.68 74.46 74.00 74.55 75.34 75.33 74.55 75.23 75.12 74.57
68.97 70.23 72.43 74.02 73.78 72.87 72.32 70.42 70.15 71.51 71.92 74.11 73.63 75.82 75.21 74.56 74.53 74.02 74.92 73.98 75.30 76.35 76.17 76.90 76.87 77.01 76.91 75.93 76.00 75.85 75.31 75.62 75.64 75.82 75.33 74.09 74.60 74.95 75.17 75.62 75.87 75.72 75.17
70.00 69.85 71.22 73.56 73.93 73.60 74.14 73.52 74.43 73.55 72.35 72.18 73.38 74.74 75.55 76.07 74.99 74.43 74.28 74.46 75.81 75.78 76.70 76.83 77.42 76.93 76.59 75.71 75.99 75.66 75.76 75.94 76.67 76.61 76.27 74.35 74.84 75.36 74.98 75.87 76.19 75.64 75.59
70.98 71.35 72.07 72.96 74.04 73.96 73.34 75.49 74.75 73.79 72.69 74.23 73.86 75.73 76.08 76.62 76.59 76.31 74.82 75.23 75.82 77.26 78.49 78.35 76.70 77.05 76.81 76.33 76.23 75.35 75.90 76.32 76.17 76.26 76.46 75.67 74.67 74.80 75.14 75.90 76.27 75.72 75.45
70.24 71.66 71.96 72.33 72.85 72.71 72.82 73.84 73.49 73.74 74.54 75.95 74.30 75.11 76.24 77.00 77.25 77.19 74.94 74.86 76.42 77.62 76.31 75.49 74.97 75.39 75.61 74.21 74.18 74.00 75.62 76.52 76.07 76.32 76.58 76.67 75.70 74.55 76.01 76.65 76.68 75.69 75.40
72.38 72.03 71.69 72.06 72.00 71.95 70.52 73.16 73.91 73.89 75.26 74.63 75.27 74.78 76.40 76.98 77.26 77.28 74.58 75.80 78.01 75.71 75.11 74.08 76.39 75.89 73.67 74.21 71.57 74.79 75.16 75.35 75.67 75.62 76.19 76.05 75.66 75.24 75.19 76.87 76.87 76.10 75.59
72.22 71.44 70.59 72.41 72.69 72.31 72.19 73.11 73.45 74.07 72.84 74.92 75.58 76.45 76.98 76.74 76.77 77.30 74.92 76.56 77.92 74.24 74.38 76.29 77.15 75.99 75.09 74.08 72.05 73.43 74.56 75.35 76.00 76.15 75.70 75.38 76.54 76.56 76.40 75.73 75.07 75.23 76.94
72.67 71.30 71.04 72.00 72.92 71.59 70.84 71.66 71.97 71.75 72.85 73.67 74.20 76.22 76.90 76.61 76.45 77.39 75.55 76.92 77.81 77.93 77.80 76.80 76.15 77.10 72.58 74.46 72.07 71.00 73.96 75.44 75.11 75.35 76.08 75.54 76.29 76.20 76.78 76.73 75.87 75.37 75.36
71.75 72.02 72.50 71.85 72.17 72.26 71.32 72.99 73.30 72.19 73.78 74.10 73.99 76.08 76.74 76.37 76.24 76.59 78.50 77.49 77.46 76.23 76.96 77.01 76.55 73.55 72.55 74.69 71.96 71.97 68.51 69.26 74.31 74.47 75.68 75.32 75.07 76.06 76.00 76.95 77.02 77.03 77.11
70.80 71.90 72.44 72.46 72.51 73.36 74.93 75.23 75.20 74.00 75.19 73.11 74.68 74.40 75.66 76.44 75.81 77.54 77.99 77.93 77.69 77.80 75.52 76.77 76.38 75.86 71.99 73.46 75.45 72.36 66.69 63.62 66.66 73.46 74.80 75.80 76.17 76.09 76.21 77.05 76.74 77.20 77.14
70.16 71.65 72.68 73.05 73.18 73.48 74.85 75.20 74.13 71.62 70.98 72.70 73.62 74.29 75.18 76.18 75.97 76.68 77.39 77.46 78.05 76.77 79.24 76.18 75.74 76.23 76.08 72.99 74.18 74.49 75.31 75.93 69.02 65.42 73.57 74.69 75.72 76.23 76.21 76.75 76.34 76.62 77.63
71.35 70.89 71.39 73.32 74.57 75.28 75.00 75.92 74.79 75.16 72.98 74.21 73.44 73.72 77.17 78.05 76.73 75.89 77.04 77.60 77.55 76.57 78.21 77.13 77.01 77.46 76.42 73.99 72.69 73.01 75.38 73.17 73.70 69.88 68.94 68.04 71.11 71.84 76.30 76.88 75.88 75.98 77.61
71.95 72.13 71.81 72.91 75.08 74.89 74.76 74.33 75.65 75.56 74.35 73.35 74.44 72.18 73.37 74.92 75.52 77.31 76.94 77.92 78.22 77.56 76.91 76.19 77.53 77.47 77.76 77.28 76.09 75.05 72.74 72.26 69.91 70.68 70.78 69.63 70.49 71.99 74.99 77.07 76.90 76.62 77.69
MSLP
1012.01 1012.92 1013.61 1013.89 1014.12 1014.26 1014.49 1014.71 1014.82 1014.99 1015.19 1015.33 1015.57 1015.73 1015.89 1015.96 1016.06 1016.14 1016.24 1016.27 1016.47 1016.77 1016.81 1016.88 1016.91 1016.96 1017.01 1016.90 1016.83 1016.68 1016.66 1016.80 1017.36 1017.69 1017.57 1017.38 1017.37 1017.28 1017.64 1017.52 1017.61 1017.10 1017.88
1012.06 1012.87 1013.79 1014.12 1014.32 1014.59 1014.72 1014.80 1015.03 1015.12 1015.35 1015.68 1015.76 1015.94 1016.08 1016.14 1016.15 1016.30 1016.36 1016.33 1016.44 1016.76 1016.90 1017.08 1017.05 1017.11 1017.15 1017.02 1016.82 1016.68 1016.83 1017.30 1017.94 1017.63 1017.60 1017.60 1017.56 1017.48 1018.05 1018.01 1018.03 1018.36 1018.19
1011.87 1013.02 1013.58 1014.19 1014.57 1014.73 1014.77 1015.07 1015.15 1015.32 1015.59 1015.80 1015.91 1016.14 1016.26 1016.20 1016.45 1016.47 1016.63 1016.60 1016.64 1016.79 1016.98 1017.15 1017.20 1017.20 1017.17 1017.09 1016.89 1016.74 1017.12 1017.69 1017.88 1017.92 1017.73 1017.17 1018.19 1018.16 1018.19 1018.41 1018.26 1018.34 1018.48
1011.52 1012.69 1013.62 1014.26 1014.57 1014.87 1015.11 1015.18 1015.38 1015.44 1015.69 1015.90 1016.13 1016.32 1016.29 1016.41 1016.61 1016.67 1016.86 1016.91 1016.87 1017.01 1017.13 1017.19 1017.29 1017.30 1017.30 1017.14 1016.94 1016.88 1017.31 1017.72 1017.71 1017.38 1016.48 1016.75 1016.74 1017.48 1018.54 1018.68 1018.40 1018.26 1018.50
1011.81 1012.70 1014.02 1014.70 1014.95 1015.31 1015.33 1015.46 1015.60 1015.77 1015.97 1016.14 1016.33 1016.43 1016.50 1016.62 1016.78 1016.79 1016.93 1016.85 1016.98 1017.19 1017.26 1017.36 1017.48 1017.45 1017.41 1017.23 1017.05 1016.98 1017.33 1017.47 1017.44 1016.29 1015.87 1017.85 1016.30 1017.66 1018.20 1018.47 1018.18 1018.29 1018.29
1013.03 1013.48 1014.55 1014.72 1015.47 1015.61 1015.65 1015.72 1015.82 1016.08 1016.33 1016.53 1016.73 1016.70 1016.83 1016.94 1016.94 1017.05 1017.13 1017.13 1017.18 1017.39 1017.54 1017.59 1017.63 1017.61 1017.52 1017.40 1017.23 1017.10 1017.22 1017.07 1016.68 1014.77 1015.74 1017.73 1019.34 1018.42 1018.23 1017.70 1018.14 1018.01 1018.29
1013.95 1013.89 1014.70 1015.41 1015.76 1015.77 1015.88 1015.94 1016.24 1016.56 1016.75 1016.84 1017.10 1017.22 1017.03 1017.05 1017.21 1017.27 1017.22 1017.34 1017.48 1017.65 1017.76 1017.77 1017.82 1017.74 1017.59 1017.54 1017.26 1017.00 1017.03 1016.72 1015.96 1014.69 1017.82 1018.52 1017.38 1017.83 1018.09 1017.82 1017.80 1018.10 1018.44
1013.30 1014.05 1014.97 1015.25 1015.75 1015.95 1016.21 1016.37 1016.77 1016.88 1016.98 1017.18 1017.37 1017.55 1017.50 1017.39 1017.30 1017.48 1017.44 1017.50 1017.65 1017.83 1017.83 1017.88 1017.86 1017.78 1017.60 1017.53 1017.23 1016.76 1016.76 1016.87 1016.03 1015.49 1016.60 1017.37 1017.36 1017.66 1018.11 1017.98 1017.86 1018.22 1018.58
1013.36 1013.38 1014.16 1015.41 1015.81 1016.01 1016.36 1016.79 1017.06 1017.14 1017.16 1017.16 1017.43 1017.53 1017.45 1017.41 1017.37 1017.55 1017.56 1017.60 1017.77 1017.91 1017.92 1017.90 1017.93 1017.79 1017.62 1017.43 1016.96 1016.44 1016.84 1017.44 1017.21 1015.49 1015.62 1016.15 1017.20 1017.72 1017.76 1018.12 1018.08 1018.37 1018.63
1012.97 1013.13 1014.02 1014.71 1015.30 1015.87 1016.37 1016.75 1017.09 1017.50 1017.47 1017.52 1017.63 1017.59 1017.56 1017.43 1017.46 1017.54 1017.57 1017.64 1017.83 1017.94 1017.92 1017.86 1017.79 1017.60 1017.48 1017.26 1016.72 1016.03 1016.11 1016.39 1016.01 1015.21 1015.83 1016.39 1017.49 1017.95 1018.24 1018.17 1018.38 1018.32 1018.59
1013.00 1013.51 1013.80 1014.82 1015.35 1016.11 1016.65 1016.96 1017.21 1017.47 1017.59 1017.81 1017.90 1017.60 1017.45 1017.12 1017.19 1017.35 1017.24 1017.61 1017.87 1017.89 1017.89 1017.73 1017.55 1017.41 1017.11 1016.61 1016.04 1015.09 1014.62 1015.58 1014.01 1014.28 1015.39 1017.00 1017.56 1017.98 1018.21 1018.11 1018.13 1018.29 1018.60
1013.35 1013.86 1014.45 1014.97 1015.36 1016.43 1016.81 1017.46 1017.57 1017.71 1017.88 1017.98 1017.87 1017.60 1017.25 1016.81 1016.59 1015.86 1017.10 1017.62 1017.85 1017.83 1017.65 1017.42 1017.23 1016.93 1016.29 1013.93 1014.82 1014.37 1013.39 1014.18 1013.63 1014.03 1015.85 1016.93 1017.44 1017.72 1017.98 1018.06 1018.07 1018.08 1018.37
1013.34 1013.52 1014.49 1015.07 1015.56 1016.49 1017.11 1017.56 1017.74 1017.71 1017.77 1017.56 1017.49 1017.15 1016.23 1016.12 1016.12 1015.80 1016.65 1016.95 1016.88 1017.29 1016.73 1016.78 1016.45 1016.04 1015.03 1014.53 1014.04 1013.31 1012.98 1014.35 1013.51 1014.75 1016.02 1016.79 1017.30 1017.53 1017.72 1017.82 1017.89 1018.12 1018.39
1013.11 1013.49 1014.37 1014.99 1015.73 1016.35 1016.99 1017.33 1017.69 1017.67 1017.52 1017.19 1016.99 1017.13 1016.56 1016.33 1016.03 1015.54 1015.41 1015.79 1016.16 1015.95 1016.10 1015.86 1014.98 1015.24 1015.33 1015.08 1014.75 1014.55 1013.47 1013.54 1013.82 1015.19 1016.23 1016.86 1017.29 1017.44 1017.66 1017.92 1018.05 1018.17 1018.40
1013.00 1013.62 1013.99 1014.95 1015.39 1016.01 1016.69 1017.13 1017.12 1016.91 1016.85 1016.89 1016.80 1016.73 1016.01 1015.76 1015.71 1015.86 1016.33 1015.97 1016.14 1016.19 1015.85 1015.76 1015.22 1015.13 1015.06 1014.82 1014.72 1014.53 1013.98 1014.24 1014.27 1014.41 1015.90 1017.01 1017.47 1017.59 1017.78 1017.88 1017.97 1018.30 1018.53
1012.80 1013.54 1014.28 1014.86 1015.15 1015.75 1016.31 1016.09 1016.29 1015.90 1016.58 1016.12 1016.24 1015.82 1015.88 1015.47 1015.89 1015.93 1016.24 1015.86 1016.33 1016.36 1016.20 1015.68 1015.34 1015.10 1014.54 1014.20 1014.36 1014.59 1014.41 1014.25 1014.87 1014.62 1015.19 1016.92 1017.43 1017.68 1017.93 1018.04 1018.18 1018.46 1018.55
1012.56 1013.11 1014.28 1014.78 1014.98 1015.44 1015.89 1016.08 1016.07 1015.97 1015.45 1015.38 1015.65 1016.02 1015.78 1015.76 1016.29 1015.86 1015.85 1015.92 1016.12 1016.39 1016.27 1015.34 1014.66 1014.27 1014.37 1013.43 1013.69 1013.92 1014.01 1014.55 1014.69 1015.03 1014.73 1015.73 1017.04 1017.60 1017.87 1018.07 1018.27 1018.46 1018.57
1012.88 1013.39 1014.44 1014.41 1014.84 1015.63 1016.12 1015.95 1015.86 1015.48 1015.18 1015.13 1015.22 1015.59 1015.97 1016.03 1016.28 1016.35 1015.94 1015.82 1016.36 1015.95 1015.04 1014.42 1014.23 1015.60 1014.95 1013.63 1012.39 1012.72 1013.58 1014.31 1014.55 1014.98 1014.74 1014.60 1015.64 1016.53 1017.54 1018.01 1018.31 1018.41 1018.52
1012.40 1013.69 1013.90 1014.56 1015.03 1015.73 1016.49 1016.19 1015.48 1016.06 1015.32 1015.08 1014.71 1014.81 1015.85 1016.08 1016.37 1015.98 1015.56 1015.69 1016.18 1015.33 1014.61 1014.22 1013.70 1015.32 1015.10 1013.44 1012.97 1012.50 1013.32 1013.74 1014.36 1014.20 1014.72 1014.63 1015.00 1015.72 1016.37 1017.74 1018.08 1018.29 1018.39
1012.45 1013.62 1014.48 1014.32 1015.27 1015.88 1016.20 1016.45 1015.73 1015.37 1015.97 1014.92 1014.79 1014.78 1015.79 1015.85 1016.26 1016.28 1015.68 1015.92 1015.94 1015.19 1014.79 1014.70 1014.43 1014.52 1014.36 1012.21 1011.93 1012.29 1013.03 1013.81 1014.08 1014.13 1014.38 1014.20 1014.95 1015.36 1015.79 1016.83 1017.41 1017.63 1018.05
1011.65 1012.98 1013.88 1014.13 1015.07 1015.81 1016.08 1015.91 1015.75 1015.58 1014.96 1015.24 1015.18 1015.04 1015.88 1015.88 1016.27 1016.37 1015.50 1016.03 1015.83 1015.49 1015.77 1015.55 1015.05 1013.88 1012.74 1013.42 1012.57 1014.70 1012.79 1013.38 1013.83 1013.79 1013.80 1014.20 1014.77 1014.78 1015.18 1015.87 1016.00 1016.93 1017.77
1011.48 1012.34 1013.16 1014.33 1015.08 1015.41 1015.61 1015.52 1016.03 1016.01 1015.41 1015.00 1014.67 1015.34 1015.85 1015.96 1016.43 1016.18 1015.61 1015.65 1015.82 1015.42 1016.02 1016.04 1015.73 1014.76 1013.16 1013.39 1014.55 1014.72 1013.42 1014.10 1013.50 1013.73 1013.77 1013.93 1014.45 1014.48 1014.86 1015.64 1015.56 1016.36 1016.69
1011.11 1012.05 1012.97 1013.79 1014.60 1014.86 1014.73 1015.43 1015.81 1015.71 1015.25 1014.99 1014.94 1015.27 1015.54 1015.85 1016.15 1016.01 1016.13 1015.93 1015.91 1015.97 1015.54 1016.07 1015.71 1015.52 1014.23 1013.49 1013.90 1014.66 1015.29 1016.07 1015.82 1015.09 1014.17 1014.42 1014.64 1014.60 1014.76 1015.00 1015.42 1015.97 1016.25
1010.36 1011.49 1012.55 1013.42 1014.12 1014.68 1014.80 1014.79 1015.33 1015.38 1014.47 1014.31 1014.64 1014.49 1015.02 1015.62 1015.83 1015.97 1016.07 1016.16 1016.21 1015.97 1015.80 1015.94 1015.73 1015.74 1015.47 1014.27 1013.96 1014.62 1014.78 1015.51 1016.55 1016.13 1014.59 1014.26 1014.96 1015.09 1014.95 1014.72 1015.16 1015.53 1015.67
1009.58 1010.72 1011.74 1012.95 1013.63 1014.06 1014.69 1014.60 1014.55 1014.50 1014.21 1014.61 1014.90 1015.04 1014.79 1015.51 1015.66 1015.67 1015.84 1016.02 1016.21 1016.21 1015.83 1016.19 1015.97 1015.89 1015.54 1015.13 1014.23 1014.25 1014.70 1014.07 1014.47 1014.32 1015.24 1016.24 1015.97 1015.76 1015.15 1014.98 1015.01 1015.44 1015.56
1008.93 1009.97 1011.02 1012.34 1013.16 1013.70 1014.25 1014.77 1014.59 1014.29 1014.36 1014.31 1014.46 1015.44 1014.74 1014.82 1015.36 1015.48 1015.47 1015.86 1015.89 1015.94 1015.96 1016.00 1016.14 1015.99 1016.04 1015.57 1014.88 1014.42 1014.02 1013.49 1013.94 1013.29 1014.32 1015.27 1014.90 1015.73 1014.66 1014.66 1014.54 1015.05 1015.46
Wind_Speed
12 14 10 11 10 10 11 11 13 12 13 13 12 11 12 13 12 11 11 11 11 12 13 11 11 10 10 9 8 7 8 8 8 9 9 8 6 7 6 7 7 10 12
16 13 11 12 11 10 11 11 13 12 13 11 11 10 11 10 11 10 10 12 12 13 13 11 12 11 10 9 8 7 6 6 7 8 11 10 7 9 6 7 14 8 13
18 16 13 10 10 10 11 13 13 12 12 10 9 8 8 9 9 9 11 11 12 13 13 12 12 11 11 9 8 6 5 5 4 6 20 9 5 8 6 10 20 21 11
18 14 14 8 8 10 9 10 10 11 10 9 8 8 7 7 7 10 11 11 12 12 12 12 11 11 9 8 7 4 3 3 4 8 11 15 14 12 7 6 10 10 9
13 14 12 10 7 7 8 8 8 8 7 7 6 6 6 7 7 10 11 11 10 11 11 11 9 9 9 8 6 4 3 4 7 14 8 20 10 9 9 7 8 7 5
10 12 14 10 8 6 5 4 4 6 5 4 2 4 6 6 5 7 9 10 11 11 10 10 9 8 7 6 3 3 4 7 11 9 27 20 12 3 4 11 9 8 6
11 11 13 13 11 12 9 8 10 9 9 5 2 5 3 12 11 8 10 10 10 9 9 9 7 5 4 2 4 6 6 9 12 4 22 16 7 7 5 7 11 5 6
16 16 13 15 12 13 13 12 9 8 4 6 9 7 9 10 9 9 9 10 9 8 8 7 5 4 2 2 4 6 7 9 11 4 19 9 11 15 4 5 8 4 5
3 15 14 12 12 14 13 11 9 10 11 7 15 13 11 11 12 10 10 9 8 7 6 4 3 3 3 5 7 10 9 9 14 3 12 8 12 7 5 2 6 4 4
12 9 12 14 11 9 10 13 11 5 2 5 8 9 10 11 12 12 10 9 7 5 4 3 4 5 6 8 10 12 13 10 18 14 11 9 12 10 7 4 5 2 4
10 10 10 11 9 9 10 11 12 5 6 9 3 10 9 7 10 13 8 10 5 4 4 5 6 8 11 14 15 16 19 5 10 5 9 20 14 10 7 2 3 5 6
8 6 7 10 11 9 8 8 6 6 4 4 7 6 7 9 5 8 11 7 5 7 9 9 9 12 15 12 8 17 6 13 6 4 9 13 10 9 9 7 8 7 6
11 9 10 11 10 11 7 6 2 2 4 5 7 7 5 8 6 6 6 7 8 12 9 10 11 9 2 8 6 7 7 8 2 3 10 11 6 6 6 7 4 5 5
11 9 11 12 12 12 6 6 7 6 4 3 4 6 5 3 5 2 3 5 1 5 2 3 1 4 4 3 8 8 4 4 4 8 10 11 6 6 6 5 7 6 5
6 7 11 12 11 10 11 9 10 7 6 8 6 11 5 4 3 5 3 4 1 2 3 3 4 2 3 5 5 6 8 7 6 6 7 11 7 5 4 4 6 7 8
7 9 11 11 10 12 7 9 6 8 4 7 8 7 3 2 3 5 5 5 4 2 2 3 3 4 4 3 1 3 5 6 4 6 11 8 11 7 6 7 9 9 9
9 8 11 10 11 12 9 8 5 3 7 5 5 8 6 3 4 2 5 3 3 2 4 8 5 3 5 5 7 5 3 2 7 3 2 9 10 11 8 8 10 9 8
12 11 13 11 14 12 6 5 5 4 4 4 5 8 6 2 4 7 4 4 4 5 8 2 5 1 9 3 4 5 3 0 4 4 3 2 10 10 10 10 9 9 8
12 12 12 11 11 12 4 3 4 5 3 5 5 8 6 6 6 8 5 4 5 5 1 7 1 3 11 8 4 2 5 5 8 8 7 5 4 10 10 12 10 9 8
15 14 10 8 13 8 6 4 5 5 5 6 1 4 8 5 6 6 4 3 7 5 4 6 7 6 8 7 8 7 7 4 2 6 6 7 8 2 14 10 9 9 10
15 17 15 9 10 8 6 7 5 6 6 2 3 7 7 3 5 7 6 5 7 3 5 2 6 9 8 8 5 13 8 7 8 6 3 5 8 7 9 5 3 6 7
14 14 15 13 12 11 10 7 3 5 2 6 5 6 7 6 7 7 6 6 6 5 2 2 4 8 10 2 7 7 4 9 5 4 6 6 6 7 7 6 5 7 9
16 16 14 15 14 12 6 6 4 5 7 5 5 6 8 7 8 7 4 4 2 7 5 4 4 5 10 6 2 2 6 3 5 8 5 7 3 3 5 6 3 7 4
18 16 17 15 15 13 10 10 8 6 9 7 6 7 9 9 8 8 6 5 4 5 5 3 7 6 3 8 4 2 3 3 5 4 6 5 3 2 3 5 8 6 7
17 17 16 16 14 14 13 10 9 11 5 2 4 4 3 8 8 8 8 7 6 6 4 5 5 5 6 7 6 4 7 5 3 5 10 5 6 10 5 8 5 6 5
18 17 17 17 14 14 15 15 11 9 8 7 6 5 6 8 9 9 7 6 7 6 5 5 6 6 7 7 9 5 6 2 8 3 3 6 8 5 4 4 2 4 5
Wind_Direction
124 127 130 126 125 142 137 122 124 127 120 117 117 108 107 108 110 115 118 119 124 126 123 128 127 130 127 129 122 125 119 119 106 101 104 105 124 110 131 135 160 135 124
130 126 135 136 143 146 130 123 121 120 118 119 116 111 111 115 118 122 121 120 123 123 117 119 122 120 124 119 123 126 129 108 108 124 92 21 131 117 104 81 63 48 129
136 133 138 135 133 134 127 127 126 124 124 125 123 121 118 122 122 126 122 117 116 124 118 117 116 122 121 124 126 134 134 126 157 158 126 182 126 81 75 87 122 181 140
136 135 129 128 130 125 114 121 123 128 130 132 143 144 143 128 135 119 115 120 117 119 121 123 124 127 127 129 128 142 149 171 223 228 202 187 110 83 73 76 102 115 136
106 121 107 120 116 125 121 123 128 132 139 140 140 141 144 146 134 125 129 125 126 128 124 118 124 127 128 129 131 161 185 236 256 255 99 24 95 93 88 48 103 107 116
100 101 103 62 103 102 76 83 89 93 76 80 135 141 147 140 108 133 121 122 122 123 118 122 127 126 124 123 149 219 233 264 275 274 79 36 327 29 90 83 52 89 106
110 95 113 102 94 73 71 64 81 80 77 25 103 34 198 159 162 153 141 132 126 126 128 125 128 131 125 143 232 247 254 266 269 349 111 168 215 219 120 89 88 75 123
148 138 117 125 120 101 86 71 70 47 95 216 117 158 244 169 164 155 137 137 132 137 131 135 138 140 157 205 249 258 252 264 285 42 143 161 175 197 170 164 103 84 133
119 147 143 149 139 122 113 106 68 44 356 172 163 176 220 172 165 160 157 142 143 150 143 145 153 177 213 230 240 255 265 285 307 171 90 135 174 102 337 194 121 102 164
124 139 140 143 137 125 123 124 117 80 338 227 122 224 184 167 157 169 152 148 156 165 172 182 206 224 234 234 242 251 246 206 235 277 122 119 164 155 194 290 178 131 179
144 143 148 132 132 128 127 129 115 130 138 67 274 212 174 193 177 165 109 142 163 195 216 224 236 248 249 239 227 236 245 291 224 23 88 144 167 187 204 295 220 244 228
148 154 117 142 137 126 127 115 114 144 175 153 225 199 191 212 208 186 124 159 193 220 229 226 233 241 247 249 199 231 229 218 50 41 89 128 157 189 209 215 229 219 202
159 151 143 131 135 142 130 125 151 199 215 173 178 225 170 187 184 167 143 188 188 208 206 206 208 232 296 344 335 316 318 66 86 67 110 117 139 194 212 217 190 191 193
146 168 145 145 147 143 148 143 186 201 209 195 134 238 195 214 207 85 182 111 322 174 106 283 41 15 341 327 325 330 353 334 66 110 118 123 128 137 154 178 171 172 176
178 148 146 145 151 150 152 177 200 183 194 216 173 216 209 204 199 197 93 205 343 59 98 250 275 42 336 270 336 324 323 56 22 119 111 136 143 142 143 163 152 159 156
193 167 119 157 153 153 192 179 203 216 152 184 196 148 219 270 167 128 178 160 125 164 247 283 21 301 281 348 66 345 326 97 32 321 123 153 159 152 154 169 156 161 151
162 171 131 160 153 154 151 185 194 141 229 171 118 137 182 254 154 221 162 195 136 148 243 223 251 210 259 229 153 162 228 145 134 123 127 146 153 172 161 156 150 153 153
141 142 166 159 152 135 158 203 221 184 284 192 162 153 161 177 170 242 165 162 138 242 234 97 266 273 335 298 131 135 85 128 144 144 251 141 151 137 156 153 155 153 159
138 147 155 159 138 138 177 216 237 317 227 245 174 150 165 172 178 262 219 147 203 231 328 274 286 337 189 271 166 164 119 150 184 168 128 163 90 143 131 150 156 162 166
146 157 152 174 135 143 187 167 226 224 324 290 139 110 146 186 193 244 182 140 243 226 223 20 335 343 275 290 317 89 117 154 154 154 179 188 114 139 127 153 168 178 176
156 154 170 157 152 157 182 171 172 224 188 245 218 96 140 195 191 225 193 194 252 358 17 345 287 260 301 14 37 288 131 178 192 160 185 123 155 181 125 159 195 134 177
163 164 157 169 171 180 193 185 170 220 294 214 202 149 210 166 179 207 275 185 216 137 180 287 299 305 287 59 302 3 352 354 139 158 174 110 158 144 141 189 120 143 189
166 170 171 170 172 196 185 129 155 223 235 167 190 189 195 186 191 242 222 334 155 303 176 218 247 294 302 315 47 183 49 254 296 354 163 131 158 134 138 136 197 131 197
170 178 171 178 175 189 219 167 176 201 218 177 210 211 149 190 197 202 209 239 240 273 13 257 231 302 278 302 14 313 260 185 136 252 245 118 222 111 166 158 158 163 204
178 177 178 182 183 184 196 241 198 241 207 149 225 79 176 167 206 210 205 214 233 246 235 281 313 264 306 293 300 304 360 274 143 346 88 313 55 326 150 148 191 169 179
179 180 178 180 185 195 188 205 231 225 257 212 190 201 171 189 187 213 201 216 227 253 237 250 240 262 279 316 318 310 250 319 224 53 34 241 174 279 149 160 161 139 164